Simultaneous Nadir Overpasses (SNOs) Predictions

Prediction of SNOs near US between AQUA and NPP Satellite Orbit:

Table of predicted SNOs near US for the next 10.0 days since TLE Epoch: 1/1/2016
Index Date (AQUA) Time (AQUA) AQUA Lat,Lon Date (NPP) Time (NPP) NPP Lat,Lon Distance(km) Time Diff (sec)
1 01/03/2016 18:16:54 49.98, -80.20 01/03/2016 18:12:37 49.68, -81.75 115.86 257
2 01/03/2016 19:55:47 49.98,-104.92 01/03/2016 19:54:05 49.57,-107.07 161.11 102
3 01/03/2016 21:30:11 33.92,-124.22 01/03/2016 21:30:56 33.40,-126.75 241.80 45
4 01/06/2016 07:45:35 20.02, -89.52 01/06/2016 07:37:21 19.98, -89.42 11.18 494
5 01/06/2016 09:21:52 29.42,-111.95 01/06/2016 09:16:08 29.52,-112.35 40.35 344
6 01/09/2016 06:30:16 46.33, -65.04 01/09/2016 06:32:34 46.76, -67.09 164.12 138
7 01/09/2016 08:08:09 49.89, -88.34 01/09/2016 08:13:01 50.38, -90.92 191.63 292
8 01/09/2016 09:47:02 49.89,-113.06 01/09/2016 09:54:28 50.54,-116.22 236.07 446




NCC Satellite Simultaneous Nadir Overpasses (SNOs) Prediction Service
